Location: Lavis
(46.1333°N, 11.1167°E)
Time: 06:18:34
(UTC+00:00)

Daily predictions for brighter satellites

Satellite Brightness Start Highest point End
(mag) Time Altitude Azimuth Time Altitude Azimuth Time Altitude Azimuth
Cosmos 1980 Rocket 2.3 18:48:44 10° NNW 18:54:24 66° ENE 19:00:00 10° SE
Cosmos 1727 Rocket 4.5 18:50:16 10° NNW 18:56:35 69° W 19:02:52 10° S
Lacrosse 5 2.4 18:52:21 10° NW 18:57:18 50° NNE 19:02:14 10° ESE
IRIDIUM 104 4.3 18:52:53 10° S 18:58:04 74° E 19:03:18 10° N
CZ-2C R/B 4.4 18:54:42 10° NNE 18:58:47 32° E 19:02:47 10° SSE
Resurs 01 Rocket 2.6 18:58:09 10° SE 19:02:03 32° ENE 19:06:00 10° N
Cosmos 1833 Rocket 3.1 18:57:16 10° SW 19:02:51 69° WNW 19:08:30 10° NNE
USA 238 DEB 3.7 18:59:46 10° SSW 19:06:11 58° ESE 19:12:53 10° NE
USA 238 3.7 18:59:52 10° SSW 19:06:17 57° ESE 19:12:59 10° NE
Cosmos 1697 Rocket 3.3 19:01:13 10° NNW 19:06:44 57° WSW 19:12:12 10° S
SPOT 3 Rocket 3.8 19:01:52 10° SE 19:06:54 53° ENE 19:11:57 10° N
IRIDIUM 114 4.4 19:02:00 10° S 19:07:13 89° E 19:12:28 10° N
GP-B 4.3 19:03:47 10° NNE 19:07:23 24° E 19:10:58 10° SE
Cosmos 1867 3.6 19:02:52 10° SSW 19:08:19 87° SE 19:13:48 10° NE
MOS 1 Rocket 4.1 19:03:02 10° N 19:08:26 67° WNW 19:13:36 10° SSW
CENTAUR R/B 3.0 19:04:43 10° S 19:09:59 36° ESE 19:16:05 10° NE
Cosmos 1666 Rocket 3.5 19:05:56 10° S 19:10:11 63° E 19:14:30 10° NNE
Cosmos 1954 Rocket 4.1 19:07:42 10° S 19:12:55 62° ESE 19:18:12 10° NNE
DMSP B5D2-2 4.0 19:09:34 10° NNE 19:14:50 74° ESE 19:20:05 10° S
FREGAT/IRIS 3.5 19:14:17 10° S 19:16:47 41° W 19:19:20 10° NNW
Cosmos 1821 Rocket 4.1 19:11:31 10° S 19:17:41 84° W 19:23:59 10° N
Ariane Rocket 3.6 19:12:50 10° S 19:17:49 58° WSW 19:22:49 10° NNW
Cosmos 405 Rocket 3.8 19:15:09 10° SE 19:18:09 24° E 19:21:11 10° NE
Intercosmos 25 3.4 19:15:35 10° NNW 19:19:14 66° W 19:22:22 10° S
Cosmos 1812 4.0 19:17:06 10° NNW 19:20:45 42° W 19:24:23 10° SSW
Cosmos 407 Rocket 4.4 19:18:11 10° SW 19:23:23 55° WNW 19:28:35 10° NNE
SJ-6B 3.7 19:21:55 10° S 19:25:49 50° W 19:29:41 10° NNW
Cosmos 2333 Rocket 4.4 19:26:03 10° N 19:28:19 12° NE 19:30:34 10° ENE
NOSS 2 (A) 4.3 19:26:16 10° NW 19:28:47 59° SW 19:30:20 18° SSE
Cosmos 1763 Rocket 4.1 19:24:08 10° N 19:29:12 43° ENE 19:33:12 16° SE
Cosmos 1140 Rocket 4.1 19:24:13 10° SSW 19:29:24 62° WNW 19:34:38 10° NNE
Cosmos 1437 Rocket 4.1 19:27:05 10° NNE 19:30:06 22° ENE 19:31:55 16° ESE
Resurs 1-3 3.6 19:26:28 10° SSE 19:30:51 89° ENE 19:35:16 10° NNW
OBJECT-B 1.0 19:30:13 10° S 19:33:29 71° W 19:36:47 10° NNW
Cosmos 2084 Rocket 3.7 19:31:01 10° SSW 19:34:59 43° ESE 19:39:02 10° NE
H-2A R/B 4.2 19:31:38 10° NNE 19:35:21 31° E 19:38:17 14° SSE
Cosmos 1633 Rocket 3.2 19:32:38 10° S 19:37:03 82° W 19:41:29 10° N
Cosmos 1184 Rocket 2.7 19:34:38 10° S 19:37:56 89° NE 19:41:14 10° N
SPOT 5 4.4 19:38:25 13° E 19:40:25 17° ENE 19:43:18 10° NNE
Cosmos 921 Rocket 2.9 19:37:28 10° NNW 19:41:42 87° ENE 19:45:04 15° SSE
Cosmos 2123 Rocket 4.1 19:36:36 10° N 19:42:52 85° W 19:49:09 10° S
Cosmos 1535 Rocket 4.4 19:37:19 10° S 19:43:27 89° E 19:49:36 10° N
MetOp-B 4.3 19:40:53 16° SE 19:45:09 58° ENE 19:50:25 10° N
Meteor 1-19 Rocket 4.4 19:46:02 10° N 19:51:21 52° ENE 19:54:58 20° SE
Cosmos 1605 Rocket 3.9 19:45:49 10° S 19:51:53 71° E 19:57:57 10° NNE
Okean 1 3.5 19:49:58 10° N 19:53:58 55° ENE 19:56:09 25° SSE
CZ-2C R/B 3.6 19:49:22 10° N 19:54:22 49° WNW 19:59:24 10° SW
NOSS 3-2 (A) 3.7 19:50:40 10° SW 19:56:22 72° NW 20:02:58 10° NE
USA 267 3.6 19:51:45 10° ENE 19:57:51 40° SE 20:03:55 10° SSW
Cosmos 2219 Rocket 4.2 19:55:29 10° N 19:58:55 16° NE 20:02:21 10° ENE
Meteor 2-4 Rocket 4.3 19:54:43 10° N 19:59:56 38° ENE 20:02:34 24° ESE
Cosmos 540 Rocket 4.1 19:57:13 10° N 20:02:08 41° ENE 20:04:39 25° ESE
SL-16 R/B 2.2 19:57:23 10° NNW 20:03:05 69° ENE 20:06:27 25° SE
SL-4 R/B 3.3 20:00:10 10° WNW 20:03:51 35° N 20:07:18 10° ENE
BREEZE-M DEB (TANK) 3.1 20:01:57 10° W 20:04:42 57° N 20:11:55 10° E
SL-27 R/B 2.4 20:04:28 34° SSE 20:05:33 51° ESE 20:08:46 10° NNE
Cosmos 2242 Rocket 3.5 20:02:12 10° N 20:06:38 78° E 20:09:07 25° SSE
Cosmos 1470 Rocket 3.8 20:02:29 10° SSW 20:06:53 71° W 20:11:15 10° N
NOSS 3-2 (C) 3.3 20:01:16 10° SW 20:06:59 89° SE 20:13:33 10° NE
Cosmos 2082 Rocket 3.8 20:06:24 10° WSW 20:11:38 37° NW 20:16:53 10° NNE
BREEZE-M DEB (TANK) 2.5 20:09:54 10° WNW 20:12:14 40° N 20:12:31 37° NNE
ERS-1 Rocket 3.4 20:16:14 30° ESE 20:18:15 47° ENE 20:23:04 10° N
Meteor 1-14 Rocket 4.3 20:13:21 13° S 20:18:39 73° E 20:24:37 10° NNE
Cosmos 2322 Rocket 2.2 20:14:41 10° NNW 20:20:25 77° ENE 20:23:15 31° SE
Cosmos 1850 Rocket 4.0 20:18:31 10° SSW 20:23:49 83° WNW 20:29:07 10° NNE
Cosmos 1500 3.4 20:25:36 45° E 20:25:42 46° E 20:29:18 10° NNE
SPOT 1/Viking Rocket 3.5 20:23:32 30° SSE 20:26:10 81° ENE 20:31:26 10° NNW
Cosmos 841 Rocket 3.5 20:22:37 10° NNW 20:27:52 69° ENE 20:29:56 37° SE
Terra 2.6 20:27:56 31° E 20:29:09 37° ENE 20:33:31 10° N
Cosmos 2360 Rocket 2.6 20:24:01 10° NNW 20:29:34 52° ENE 20:31:48 33° ESE
USA 276 2.1 20:27:04 10° WNW 20:30:10 70° SW 20:30:10 70° SW
Meteor 1-18 Rocket 4.4 20:24:47 10° NNW 20:30:20 69° W 20:33:52 23° S
X-37B 1.7 20:27:58 10° W 20:30:22 32° SW 20:30:22 32° SW
IGS 5A 3.6 20:29:39 33° S 20:31:25 69° WSW 20:35:34 10° NNW
Okean 3 4.1 20:27:32 10° N 20:31:36 39° ENE 20:32:07 37° E
ATLAS 3B R/B 2.7 20:25:42 10° SSW 20:32:03 52° ESE 20:38:26 10° NE
Cosmos 1238 Rocket 3.9 20:30:32 15° SW 20:32:33 31° WNW 20:35:19 10° N
USA 234 3.7 20:29:00 20° E 20:33:32 55° NNE 20:39:53 10° NW
Cosmos 2237 4.4 20:28:07 10° NNW 20:33:47 61° ENE 20:35:58 36° ESE
Cosmos 1666 4.2 20:37:36 23° ENE 20:37:36 23° ENE 20:39:45 10° NNE
Cosmos 1980 Rocket 4.3 20:33:47 10° NW 20:37:50 20° W 20:41:51 10° SW
Resurs 01 Rocket 3.4 20:34:56 11° SSW 20:38:32 28° W 20:42:24 10° NW
Iridium 4 Rocket 3.5 20:38:44 41° E 20:38:48 41° E 20:42:43 10° NNE
Cosmos 44 3.4 20:33:54 10° NW 20:38:50 72° WSW 20:40:36 41° SSE
Lacrosse 5 2.7 20:35:29 10° WNW 20:40:12 40° SW 20:41:50 31° S
CARTOSAT-1 3.5 20:40:31 53° SE 20:41:27 74° ENE 20:45:47 10° N
CZ-4B DEB 4.3 20:46:38 82° NNW 20:46:38 82° NNW 20:49:52 10° NNW
Cosmos 2061 Rocket 4.1 20:50:45 41° SE 20:52:30 53° E 20:58:30 10° NNE
Spot 2 Rocket 4.2 20:51:17 26° SSW 20:53:50 49° W 20:58:46 10° NNW
Cosmos 1814 Rocket 3.9 20:50:17 10° NNW 20:55:32 86° WSW 20:56:56 50° SSE
COSMOS 2428 3.9 20:50:51 10° N 20:55:56 31° NE 20:57:48 26° E
Cosmos 1802 Rocket 4.0 20:54:58 38° SSE 20:57:29 70° E 21:03:46 10° NNE
Cosmos 1869 Rocket 3.7 20:57:44 43° SSW 20:59:05 72° W 21:03:34 10° N
Cosmos 2237 Rocket 4.3 20:56:24 10° N 20:59:57 17° NE 21:02:46 12° ENE
CENTAUR R/B 3.4 20:54:26 10° WSW 21:00:22 53° NW 21:07:26 10° NE
Okean 1-7 4.0 20:56:25 10° NNW 21:00:30 42° W 21:01:51 32° SW
Cosmos 44 Rocket 4.4 20:58:20 10° NNW 21:02:55 35° NE 21:04:15 30° ENE
Cosmos 1437 Rocket 4.3 21:03:07 10° NNW 21:06:21 27° W 21:07:19 24° WSW
Cosmos 2333 Rocket 2.7 21:08:30 10° NNW 21:14:06 49° ENE 21:15:19 42° E
ATLAS 5 CENTAUR R/B 2.4 21:11:18 10° NW 21:14:10 66° NE 21:14:58 55° E
Cosmos 1674 Rocket 4.4 21:10:16 10° N 21:13:54 39° ENE 21:13:54 39° ENE
SPOT 5 2.9 21:17:39 52° SW 21:18:05 55° W 21:22:26 10° NNW
Cosmos 1066 Rocket 4.2 21:15:14 10° N 21:20:51 64° ENE 21:21:30 59° ESE
Cosmos 1486 Rocket 4.3 21:22:07 50° E 21:22:07 50° E 21:26:35 10° NNE
Cosmos 1733 Rocket 3.3 21:29:41 63° NE 21:29:41 63° NE 21:33:29 10° NNE
ERBS 4.3 21:27:59 10° NW 21:30:13 25° N 21:30:13 25° N
Meteor 1-11 Rocket 3.8 21:31:46 53° SSW 21:33:10 78° WNW 21:39:00 10° N
Cosmos 968 Rocket 3.7 21:37:25 54° ENE 21:37:25 54° ENE 21:41:42 10° NNE
Lacrosse 4 Rocket 1.9 21:37:37 59° N 21:37:37 59° N 21:41:14 10° NNE
Tsikada Rocket 3.9 21:31:17 10° N 21:37:39 87° E 21:38:46 63° SSE
ALOS 2 4.4 21:39:37 22° NE 21:39:37 22° NE 21:42:35 10° NNE
USA 267 3.4 21:34:37 10° NE 21:41:08 71° NNW 21:47:38 10° WSW
Cosmos 2219 Rocket 2.1 21:38:15 10° NNW 21:43:57 72° ENE 21:44:23 68° E
SL-4 R/B 3.2 21:40:20 10° WNW 21:42:59 36° NNW 21:42:59 36° NNW
SL-16 R/B 4.1 21:42:39 10° NW 21:46:35 19° W 21:48:20 17° WSW
Cosmos 1242 Rocket 4.2 21:48:36 10° NNW 21:50:53 34° NW 21:50:53 34° NW
Meteor 1-23 Rocket 4.3 21:50:56 10° NNW 21:56:45 71° W 21:57:14 67° SW
Cosmos 1725 Rocket 4.3 21:55:18 46° SW 21:57:04 63° WNW 22:03:22 10° N
Cosmos 2322 3.7 21:51:40 10° NNW 21:57:18 66° WSW 21:57:25 66° WSW
Spot 4 4.2 21:58:19 60° NE 21:58:19 60° NE 22:02:35 10° N
Cosmos 1536 4.3 22:03:04 34° NW 22:03:04 34° NW 22:06:13 10° N
Cosmos 2322 Rocket 4.2 22:00:09 10° WNW 22:03:46 17° W 22:05:03 16° WSW
Cosmos 1378 Rocket 4.2 22:01:23 10° NNW 22:04:52 53° NNW 22:04:52 53° NNW
Terra 3.3 22:06:49 27° W 22:06:58 27° W 22:11:02 10° NW
Cosmos 2360 Rocket 3.6 22:08:35 10° NW 22:13:14 27° WSW 22:13:33 27° WSW
SL-16 R/B 4.0 22:11:17 10° N 22:15:39 22° NE 22:17:41 18° ENE
USA 234 3.3 22:16:20 59° SW 22:16:31 60° SW 22:22:58 10° WNW
MOS 1-B Rocket 4.0 22:17:03 10° N 22:22:37 66° WNW 22:23:10 62° WSW
ATLAS 3B R/B 3.7 22:16:43 10° WSW 22:22:54 41° NW 22:29:12 10° NNE
Cosmos 1354 Rocket 4.2 22:23:58 67° NNE 22:23:58 67° NNE 22:28:34 10° NNE
Cosmos 1975 Rocket 4.2 22:24:10 10° N 22:27:17 42° NNE 22:27:17 42° NNE
Cosmos 2297 Rocket 3.4 22:32:11 31° ENE 22:32:11 31° ENE 22:35:41 10° NE
Meteor 1-21 4.3 22:27:30 10° N 22:33:00 72° NE 22:33:00 72° NE
Meteor 2-9 Rocket 4.4 22:35:06 68° NE 22:35:06 68° NE 22:40:17 10° NNE
Thor Agena Rocket 3.8 22:30:30 10° NNE 22:35:03 67° NNW 22:35:03 67° NNW
Cosmos 1980 3.8 22:31:33 10° NNW 22:36:58 69° NE 22:36:58 69° NE
Nimbus 7 Rocket 4.4 22:31:39 10° NNE 22:37:08 70° ENE 22:37:08 70° ENE
Timation 2 Rocket 4.0 22:39:51 67° ENE 22:39:51 67° ENE 22:45:13 10° NNE
COSMOS 2428 3.3 22:34:55 10° NW 22:39:48 47° W 22:39:48 47° W
Cosmos 2237 Rocket 2.3 22:39:21 10° NNW 22:44:34 71° NNE 22:44:34 71° NNE
Cosmos 2219 3.9 22:46:31 44° ENE 22:46:31 44° ENE 22:50:39 10° NE
SJ 16-02 4.1 22:47:38 10° ENE 22:47:38 10° ENE 22:47:47 10° ENE
Cosmos 1464 Rocket 3.9 22:46:12 80° ENE 22:46:12 80° ENE 22:52:14 10° N
NOSS 0 Rocket 4.0 22:46:00 10° NNW 22:51:50 67° W 22:51:50 67° W
Nadezhda 4 Rocket 4.0 22:48:42 10° N 22:54:56 70° ENE 22:54:56 70° ENE
Cosmos 2333 Rocket 3.6 22:53:14 10° NW 22:57:19 28° W 22:57:19 28° W
ALOS 2 4.3 23:17:00 28° NW 23:17:00 28° NW 23:19:26 10° NNW
Lacrosse 4 Rocket 4.4 23:14:51 10° WNW 23:16:31 12° NW 23:18:10 10° NNW
Cosmos 1092 Rocket 4.1 23:10:34 10° N 23:16:44 64° ENE 23:16:44 64° ENE
Cosmos 2034 Rocket 3.9 23:19:27 81° WNW 23:19:27 81° WNW 23:25:46 10° N
Cosmos 2227 Rocket 2.5 23:22:00 62° NE 23:22:00 62° NE 23:26:45 10° NNE
Cosmos 2219 Rocket 4.1 23:23:25 10° WNW 23:26:05 18° W 23:26:05 18° W
Meteor 1-12 Rocket 4.4 23:28:42 79° NNW 23:28:42 79° NNW 23:34:26 10° N
Resurs 1-4 Rocket 4.2 23:32:35 10° NE 23:35:32 15° E 23:35:32 15° E
Meteor 2-5 Rocket 4.4 23:31:28 10° N 23:36:48 43° ENE 23:36:52 43° ENE
Cosmos 158 Rocket 4.4 23:41:42 10° NNW 23:46:39 61° NE 23:46:39 61° NE
Cosmos 1607 4.0 23:41:30 10° NW 23:47:25 71° W 23:47:25 71° W
Cosmos 2082 3.9 23:48:47 63° ENE 23:48:47 63° ENE 23:53:36 10° NNE
Cosmos 1375 Rocket 4.4 23:48:19 84° WSW 23:48:30 86° NW 23:55:10 10° NE
USA 229 DEB 4.0 23:53:16 49° ESE 23:53:16 49° ESE 23:59:22 10° NE
USA 229 4.0 23:53:24 48° ESE 23:53:24 48° ESE 23:59:27 10° NE
